contact:dominique.lefevre@mio.osupytheas.fr, maurice.libes@osupytheas.fr, didier.mallarino@osupytheas.fr
Project:EMSO http://www.emso-fr.org/EMSO-France
Depth: 2436.0 m
Title:EMSO Ligure Ouest : Data MII capteur MICROCAT
DateTime_Computer,Latitude,Longitude,Temperature,Conductivity,Pressure,DateTime_Instrument
DateTime_Computer,Latitude,Longitude,degC,S m-1,dbar,DateTime_Instrument
2019-10-11T00:01:46Z,42.805,6.029,13.2970,4.59981,2469.853,2019-10-11T02:02:12Z
2019-10-11T00:04:50Z,42.805,6.029,13.2969,4.59979,2469.89,2019-10-11T02:05:15Z
2019-10-11T00:07:53Z,42.805,6.029,13.2978,4.59991,2469.876,2019-10-11T02:08:18Z
2019-10-11T00:10:56Z,42.805,6.029,13.2964,4.59979,2469.89,2019-10-11T02:11:21Z
2019-10-11T00:13:59Z,42.805,6.029,13.2976,4.59979,2469.9,2019-10-11T02:14:24Z
2019-10-11T00:17:02Z,42.805,6.029,13.2966,4.59978,2469.876,2019-10-11T02:17:27Z
2019-10-11T00:20:06Z,42.805,6.029,13.2973,4.59987,2469.876,2019-10-11T02:20:31Z
2019-10-11T00:23:09Z,42.805,6.029,13.2971,4.59994,2469.876,2019-10-11T02:23:34Z
2019-10-11T00:26:12Z,42.805,6.029,13.2982,4.59985,2469.876,2019-10-11T02:26:37Z
2019-10-11T00:29:15Z,42.805,6.029,13.2977,4.59995,2469.937,2019-10-11T02:29:40Z
2019-10-11T00:32:18Z,42.805,6.029,13.2967,4.59995,2469.9,2019-10-11T02:32:43Z
2019-10-11T00:35:22Z,42.805,6.029,13.2968,4.59984,2469.853,2019-10-11T02:35:47Z
2019-10-11T00:38:25Z,42.805,6.029,13.2969,4.59983,2469.876,2019-10-11T02:38:50Z
2019-10-11T00:41:28Z,42.805,6.029,13.2968,4.59990,2469.853,2019-10-11T02:41:53Z
2019-10-11T00:44:31Z,42.805,6.029,13.2974,4.59990,2469.876,2019-10-11T02:44:56Z
2019-10-11T00:47:35Z,42.805,6.029,13.2974,4.59985,2469.89,2019-10-11T02:48:00Z
2019-10-11T00:50:38Z,42.805,6.029,13.2967,4.59981,2469.89,2019-10-11T02:51:03Z
2019-10-11T00:53:41Z,42.805,6.029,13.2976,4.59997,2469.9,2019-10-11T02:54:06Z
2019-10-11T00:56:44Z,42.805,6.029,13.2974,4.59994,2469.9,2019-10-11T02:57:09Z
2019-10-11T00:59:47Z,42.805,6.029,13.2982,4.59999,2469.876,2019-10-11T03:00:12Z
2019-10-11T01:02:51Z,42.805,6.029,13.2983,4.59979,2469.89,2019-10-11T03:03:16Z
2019-10-11T01:05:54Z,42.805,6.029,13.2964,4.59990,2469.914,2019-10-11T03:06:19Z
2019-10-11T01:08:57Z,42.805,6.029,13.2978,4.59994,2469.876,2019-10-11T03:09:22Z
2019-10-11T01:12:00Z,42.805,6.029,13.2966,4.59994,2469.876,2019-10-11T03:12:25Z
2019-10-11T01:15:03Z,42.805,6.029,13.2977,4.59997,2469.89,2019-10-11T03:15:28Z
2019-10-11T01:18:07Z,42.805,6.029,13.2968,4.59993,2469.853,2019-10-11T03:18:32Z
2019-10-11T01:21:10Z,42.805,6.029,13.2967,4.59986,2469.867,2019-10-11T03:21:35Z
2019-10-11T01:24:13Z,42.805,6.029,13.2974,4.60001,2469.9,2019-10-11T03:24:38Z
2019-10-11T01:27:16Z,42.805,6.029,13.2984,4.59975,2469.853,2019-10-11T03:27:41Z
2019-10-11T01:30:20Z,42.805,6.029,13.2991,4.59987,2469.914,2019-10-11T03:30:45Z
2019-10-11T01:33:23Z,42.805,6.029,13.2978,4.59981,2469.9,2019-10-11T03:33:48Z
2019-10-11T01:36:26Z,42.805,6.029,13.2979,4.59997,2469.914,2019-10-11T03:36:51Z
2019-10-11T01:39:29Z,42.805,6.029,13.2979,4.59991,2469.89,2019-10-11T03:39:54Z
2019-10-11T01:42:32Z,42.805,6.029,13.2964,4.59978,2469.89,2019-10-11T03:42:57Z
2019-10-11T01:45:35Z,42.805,6.029,13.2964,4.59991,2469.876,2019-10-11T03:46:01Z
2019-10-11T01:48:39Z,42.805,6.029,13.2968,4.59973,2469.89,2019-10-11T03:49:04Z
2019-10-11T01:51:42Z,42.805,6.029,13.2975,4.59974,2469.876,2019-10-11T03:52:07Z
2019-10-11T01:54:45Z,42.805,6.029,13.2971,4.59996,2469.9,2019-10-11T03:55:10Z
2019-10-11T01:57:48Z,42.805,6.029,13.2968,4.59986,2469.89,2019-10-11T03:58:13Z
2019-10-11T02:00:51Z,42.805,6.029,13.2968,4.59964,2469.9,2019-10-11T04:01:16Z
2019-10-11T02:03:55Z,42.805,6.029,13.2965,4.59978,2469.914,2019-10-11T04:04:20Z
2019-10-11T02:06:58Z,42.805,6.029,13.2978,4.59994,2469.937,2019-10-11T04:07:23Z
2019-10-11T02:10:01Z,42.805,6.029,13.2968,4.59976,2469.876,2019-10-11T04:10:26Z
2019-10-11T02:13:04Z,42.805,6.029,13.2972,4.59989,2469.914,2019-10-11T04:13:29Z
2019-10-11T02:16:07Z,42.805,6.029,13.2972,4.59992,2469.9,2019-10-11T04:16:32Z
2019-10-11T02:19:11Z,42.805,6.029,13.2977,4.59966,2469.89,2019-10-11T04:19:36Z
2019-10-11T02:22:14Z,42.805,6.029,13.2974,4.59972,2469.914,2019-10-11T04:22:39Z
2019-10-11T02:25:17Z,42.805,6.029,13.2973,4.59978,2469.914,2019-10-11T04:25:42Z
2019-10-11T02:28:20Z,42.805,6.029,13.2979,4.59961,2469.9,2019-10-11T04:28:45Z
2019-10-11T02:31:23Z,42.805,6.029,13.2972,4.59974,2469.914,2019-10-11T04:31:48Z
2019-10-11T02:34:27Z,42.805,6.029,13.2959,4.59968,2469.914,2019-10-11T04:34:52Z
2019-10-11T02:37:30Z,42.805,6.029,13.2977,4.59963,2469.9,2019-10-11T04:37:55Z
2019-10-11T02:40:33Z,42.805,6.029,13.2963,4.59967,2469.9,2019-10-11T04:40:58Z
2019-10-11T02:43:36Z,42.805,6.029,13.2968,4.59973,2469.914,2019-10-11T04:44:01Z
2019-10-11T02:46:39Z,42.805,6.029,13.2971,4.59961,2469.923,2019-10-11T04:47:04Z
2019-10-11T02:49:43Z,42.805,6.029,13.2967,4.59960,2469.923,2019-10-11T04:50:08Z
2019-10-11T02:52:46Z,42.805,6.029,13.2969,4.59973,2469.937,2019-10-11T04:53:11Z
2019-10-11T02:55:49Z,42.805,6.029,13.2984,4.59974,2469.9,2019-10-11T04:56:14Z
2019-10-11T02:58:52Z,42.805,6.029,13.2978,4.59984,2469.9,2019-10-11T04:59:17Z
2019-10-11T03:01:55Z,42.805,6.029,13.2971,4.59999,2469.947,2019-10-11T05:02:20Z
2019-10-11T03:04:59Z,42.805,6.029,13.2968,4.59988,2469.937,2019-10-11T05:05:24Z
2019-10-11T03:08:02Z,42.805,6.029,13.2982,4.59982,2469.914,2019-10-11T05:08:27Z
2019-10-11T03:11:05Z,42.805,6.029,13.2979,4.59991,2469.9,2019-10-11T05:11:30Z
2019-10-11T03:14:08Z,42.805,6.029,13.2968,4.59976,2469.96,2019-10-11T05:14:33Z
2019-10-11T03:17:11Z,42.805,6.029,13.2972,4.59976,2469.923,2019-10-11T05:17:36Z
2019-10-11T03:20:14Z,42.805,6.029,13.2982,4.59983,2469.96,2019-10-11T05:20:39Z
2019-10-11T03:23:18Z,42.805,6.029,13.2976,4.59994,2469.947,2019-10-11T05:23:43Z
2019-10-11T03:26:21Z,42.805,6.029,13.2977,4.59972,2470.007,2019-10-11T05:26:46Z
2019-10-11T03:29:24Z,42.805,6.029,13.2957,4.59971,2469.97,2019-10-11T05:29:49Z
2019-10-11T03:32:27Z,42.805,6.029,13.2970,4.59982,2469.97,2019-10-11T05:32:52Z
2019-10-11T03:35:30Z,42.805,6.029,13.2977,4.59981,2469.984,2019-10-11T05:35:56Z
2019-10-11T03:38:34Z,42.805,6.029,13.2986,4.59993,2469.97,2019-10-11T05:38:59Z
2019-10-11T03:41:37Z,42.805,6.029,13.2994,4.59994,2469.937,2019-10-11T05:42:02Z
2019-10-11T03:44:40Z,42.805,6.029,13.2971,4.59961,2469.97,2019-10-11T05:45:05Z
2019-10-11T03:47:43Z,42.805,6.029,13.2964,4.59972,2470.007,2019-10-11T05:48:08Z
2019-10-11T03:50:46Z,42.805,6.029,13.2974,4.60007,2469.97,2019-10-11T05:51:12Z
2019-10-11T03:53:50Z,42.805,6.029,13.2982,4.60000,2469.984,2019-10-11T05:54:15Z
2019-10-11T03:56:53Z,42.805,6.029,13.2974,4.59982,2469.984,2019-10-11T05:57:18Z
2019-10-11T03:59:56Z,42.805,6.029,13.2979,4.59985,2470.007,2019-10-11T06:00:21Z
2019-10-11T04:02:59Z,42.805,6.029,13.2974,4.59978,2469.984,2019-10-11T06:03:24Z
2019-10-11T04:06:02Z,42.805,6.029,13.2984,4.59967,2469.947,2019-10-11T06:06:27Z
2019-10-11T04:09:06Z,42.805,6.029,13.2974,4.59979,2469.984,2019-10-11T06:09:31Z
2019-10-11T04:12:09Z,42.805,6.029,13.2960,4.59972,2470.007,2019-10-11T06:12:34Z
2019-10-11T04:15:12Z,42.805,6.029,13.2969,4.59967,2469.947,2019-10-11T06:15:37Z
2019-10-11T04:18:15Z,42.805,6.029,13.2965,4.59990,2469.97,2019-10-11T06:18:40Z
2019-10-11T04:21:18Z,42.805,6.029,13.2968,4.59991,2469.993,2019-10-11T06:21:44Z
2019-10-11T04:24:22Z,42.805,6.029,13.2965,4.59974,2469.993,2019-10-11T06:24:47Z
2019-10-11T04:27:25Z,42.805,6.029,13.2968,4.59968,2469.984,2019-10-11T06:27:50Z
2019-10-11T04:30:28Z,42.805,6.029,13.2968,4.59981,2470.017,2019-10-11T06:30:53Z
2019-10-11T04:33:31Z,42.805,6.029,13.2970,4.59998,2470.007,2019-10-11T06:33:56Z
2019-10-11T04:36:34Z,42.805,6.029,13.2964,4.59968,2470.007,2019-10-11T06:36:59Z
2019-10-11T04:39:38Z,42.805,6.029,13.2965,4.59975,2469.96,2019-10-11T06:40:03Z
2019-10-11T04:42:41Z,42.805,6.029,13.2970,4.59970,2469.993,2019-10-11T06:43:06Z
2019-10-11T04:45:44Z,42.805,6.029,13.2975,4.59978,2469.993,2019-10-11T06:46:09Z
2019-10-11T04:48:47Z,42.805,6.029,13.2967,4.59968,2469.97,2019-10-11T06:49:12Z
2019-10-11T04:51:50Z,42.805,6.029,13.2961,4.59976,2469.993,2019-10-11T06:52:15Z
2019-10-11T04:54:53Z,42.805,6.029,13.2967,4.59966,2470.03,2019-10-11T06:55:18Z
2019-10-11T04:57:57Z,42.805,6.029,13.2968,4.59979,2470.007,2019-10-11T06:58:22Z
2019-10-11T05:01:00Z,42.805,6.029,13.2966,4.59963,2470.017,2019-10-11T07:01:25Z
2019-10-11T05:04:03Z,42.805,6.029,13.2968,4.59971,2469.97,2019-10-11T07:04:28Z
2019-10-11T05:07:06Z,42.805,6.029,13.2965,4.59961,2469.993,2019-10-11T07:07:31Z
2019-10-11T05:10:10Z,42.805,6.029,13.2969,4.59985,2470.007,2019-10-11T07:10:35Z
2019-10-11T05:13:13Z,42.805,6.029,13.2993,4.59968,2470.03,2019-10-11T07:13:38Z
2019-10-11T05:16:16Z,42.805,6.029,13.2960,4.59973,2470.03,2019-10-11T07:16:41Z
2019-10-11T05:19:19Z,42.805,6.029,13.2981,4.59963,2470.017,2019-10-11T07:19:44Z
2019-10-11T05:22:22Z,42.805,6.029,13.2967,4.59979,2469.984,2019-10-11T07:22:47Z
2019-10-11T05:25:25Z,42.805,6.029,13.2967,4.59972,2470.053,2019-10-11T07:25:50Z
2019-10-11T05:28:29Z,42.805,6.029,13.2964,4.59976,2469.993,2019-10-11T07:28:54Z
2019-10-11T05:31:32Z,42.805,6.029,13.2969,4.59973,2470.04,2019-10-11T07:31:57Z
2019-10-11T05:34:35Z,42.805,6.029,13.2970,4.59971,2469.993,2019-10-11T07:35:00Z
2019-10-11T05:37:38Z,42.805,6.029,13.2965,4.59983,2470.04,2019-10-11T07:38:03Z
2019-10-11T05:40:41Z,42.805,6.029,13.2967,4.59986,2470.007,2019-10-11T07:41:06Z
2019-10-11T05:43:44Z,42.805,6.029,13.2972,4.59983,2470.017,2019-10-11T07:44:10Z
2019-10-11T05:46:48Z,42.805,6.029,13.2988,4.59976,2469.97,2019-10-11T07:47:13Z
2019-10-11T05:49:51Z,42.805,6.029,13.2966,4.59971,2469.979,2019-10-11T07:50:16Z
2019-10-11T05:52:54Z,42.805,6.029,13.2971,4.59978,2470.007,2019-10-11T07:53:19Z
2019-10-11T05:55:57Z,42.805,6.029,13.2970,4.59985,2470.017,2019-10-11T07:56:22Z
2019-10-11T05:59:00Z,42.805,6.029,13.2973,4.59978,2470.053,2019-10-11T07:59:26Z
2019-10-11T06:02:04Z,42.805,6.029,13.2976,4.59973,2470.007,2019-10-11T08:02:29Z
2019-10-11T06:05:07Z,42.805,6.029,13.2971,4.59976,2470.017,2019-10-11T08:05:32Z
2019-10-11T06:08:10Z,42.805,6.029,13.2971,4.59983,2469.993,2019-10-11T08:08:35Z
2019-10-11T06:11:13Z,42.805,6.029,13.2977,4.59965,2470.017,2019-10-11T08:11:38Z
2019-10-11T06:14:16Z,42.805,6.029,13.2968,4.59968,2469.97,2019-10-11T08:14:42Z
2019-10-11T06:17:20Z,42.805,6.029,13.2976,4.59966,2470.04,2019-10-11T08:17:45Z
2019-10-11T06:20:23Z,42.805,6.029,13.2968,4.59961,2469.993,2019-10-11T08:20:48Z
2019-10-11T06:23:26Z,42.805,6.029,13.2979,4.59983,2469.97,2019-10-11T08:23:51Z
2019-10-11T06:26:29Z,42.805,6.029,13.2972,4.59981,2469.993,2019-10-11T08:26:54Z
2019-10-11T06:29:32Z,42.805,6.029,13.2976,4.59973,2469.993,2019-10-11T08:29:57Z
2019-10-11T06:32:36Z,42.805,6.029,13.2991,4.59986,2469.993,2019-10-11T08:33:01Z
2019-10-11T06:35:39Z,42.805,6.029,13.2979,4.59961,2470.04,2019-10-11T08:36:04Z
2019-10-11T06:38:42Z,42.805,6.029,13.2967,4.59966,2469.97,2019-10-11T08:39:07Z
2019-10-11T06:41:45Z,42.805,6.029,13.2968,4.59974,2470.007,2019-10-11T08:42:10Z
2019-10-11T06:44:48Z,42.805,6.029,13.2964,4.59985,2470.007,2019-10-11T08:45:13Z
2019-10-11T06:47:52Z,42.805,6.029,13.2979,4.59966,2470.007,2019-10-11T08:48:17Z
2019-10-11T06:50:55Z,42.805,6.029,13.2973,4.59961,2470.007,2019-10-11T08:51:20Z
2019-10-11T06:53:58Z,42.805,6.029,13.2971,4.59969,2470.03,2019-10-11T08:54:23Z
2019-10-11T06:57:01Z,42.805,6.029,13.2978,4.59989,2470.007,2019-10-11T08:57:26Z
2019-10-11T07:00:04Z,42.805,6.029,13.2971,4.59976,2470.007,2019-10-11T09:00:29Z
2019-10-11T07:03:08Z,42.805,6.029,13.2964,4.59966,2470.017,2019-10-11T09:03:33Z
2019-10-11T07:06:11Z,42.805,6.029,13.2963,4.59983,2470.017,2019-10-11T09:06:36Z
2019-10-11T07:09:14Z,42.805,6.029,13.2964,4.59976,2469.993,2019-10-11T09:09:39Z
2019-10-11T07:12:17Z,42.805,6.029,13.2962,4.59973,2469.993,2019-10-11T09:12:42Z
2019-10-11T07:15:20Z,42.805,6.029,13.2965,4.59985,2469.993,2019-10-11T09:15:45Z
2019-10-11T07:18:23Z,42.805,6.029,13.2971,4.59964,2470.017,2019-10-11T09:18:49Z
2019-10-11T07:21:27Z,42.805,6.029,13.2968,4.59994,2469.97,2019-10-11T09:21:52Z
2019-10-11T07:24:30Z,42.805,6.029,13.2974,4.59978,2469.984,2019-10-11T09:24:55Z
2019-10-11T07:27:33Z,42.805,6.029,13.2975,4.59978,2469.993,2019-10-11T09:27:58Z
2019-10-11T07:30:36Z,42.805,6.029,13.2976,4.59982,2470.007,2019-10-11T09:31:01Z
2019-10-11T07:33:39Z,42.805,6.029,13.2979,4.60003,2470.017,2019-10-11T09:34:04Z
2019-10-11T07:36:43Z,42.805,6.029,13.2993,4.59991,2469.984,2019-10-11T09:37:08Z
2019-10-11T07:39:46Z,42.805,6.029,13.2971,4.59998,2470.007,2019-10-11T09:40:11Z
2019-10-11T07:42:49Z,42.805,6.029,13.2986,4.59991,2470.03,2019-10-11T09:43:14Z
2019-10-11T07:45:52Z,42.805,6.029,13.3002,4.60011,2470.007,2019-10-11T09:46:17Z
2019-10-11T07:48:55Z,42.805,6.029,13.2966,4.60039,2469.97,2019-10-11T09:49:20Z
2019-10-11T07:51:58Z,42.805,6.029,13.2980,4.60009,2469.97,2019-10-11T09:52:24Z
2019-10-11T07:55:02Z,42.805,6.029,13.2985,4.59974,2470.007,2019-10-11T09:55:27Z
2019-10-11T07:58:05Z,42.805,6.029,13.2998,4.60001,2469.947,2019-10-11T09:58:30Z
2019-10-11T08:01:08Z,42.805,6.029,13.2963,4.59992,2469.984,2019-10-11T10:01:33Z
2019-10-11T08:04:11Z,42.805,6.029,13.2975,4.60006,2469.97,2019-10-11T10:04:36Z
2019-10-11T08:07:14Z,42.805,6.029,13.2979,4.60041,2469.993,2019-10-11T10:07:40Z
2019-10-11T08:10:18Z,42.805,6.029,13.2996,4.60021,2469.993,2019-10-11T10:10:43Z
2019-10-11T08:13:21Z,42.805,6.029,13.2978,4.60038,2469.97,2019-10-11T10:13:46Z
2019-10-11T08:16:24Z,42.805,6.029,13.3002,4.59999,2469.947,2019-10-11T10:16:49Z
2019-10-11T08:19:27Z,42.805,6.029,13.2985,4.60002,2469.984,2019-10-11T10:19:52Z
2019-10-11T08:22:31Z,42.805,6.029,13.2988,4.60031,2469.993,2019-10-11T10:22:56Z
2019-10-11T08:25:34Z,42.805,6.029,13.2986,4.60025,2469.97,2019-10-11T10:25:59Z
2019-10-11T08:28:37Z,42.805,6.029,13.2979,4.60025,2469.979,2019-10-11T10:29:02Z
2019-10-11T08:31:40Z,42.805,6.029,13.2981,4.60005,2469.923,2019-10-11T10:32:05Z
2019-10-11T08:34:43Z,42.805,6.029,13.2973,4.60004,2469.947,2019-10-11T10:35:08Z
2019-10-11T08:37:46Z,42.805,6.029,13.2985,4.59999,2469.947,2019-10-11T10:38:12Z
2019-10-11T08:40:50Z,42.805,6.029,13.2980,4.60012,2469.97,2019-10-11T10:41:15Z
2019-10-11T08:43:53Z,42.805,6.029,13.3011,4.60014,2469.96,2019-10-11T10:44:18Z
2019-10-11T08:46:56Z,42.805,6.029,13.2972,4.60024,2469.97,2019-10-11T10:47:21Z
2019-10-11T08:49:59Z,42.805,6.029,13.2986,4.60024,2469.97,2019-10-11T10:50:24Z
2019-10-11T08:53:03Z,42.805,6.029,13.2989,4.60029,2469.96,2019-10-11T10:53:28Z
2019-10-11T08:56:06Z,42.805,6.029,13.2985,4.60021,2469.97,2019-10-11T10:56:31Z
2019-10-11T08:59:09Z,42.805,6.029,13.2986,4.60003,2469.937,2019-10-11T10:59:34Z
2019-10-11T09:02:13Z,42.805,6.029,13.3000,4.60006,2469.97,2019-10-11T11:02:38Z
2019-10-11T09:05:16Z,42.805,6.029,13.2986,4.60033,2469.947,2019-10-11T11:05:41Z
2019-10-11T09:08:19Z,42.805,6.029,13.2991,4.60034,2469.914,2019-10-11T11:08:44Z
2019-10-11T09:11:22Z,42.805,6.029,13.2996,4.60026,2469.947,2019-10-11T11:11:47Z
2019-10-11T09:14:25Z,42.805,6.029,13.2977,4.60014,2469.947,2019-10-11T11:14:50Z
2019-10-11T09:17:29Z,42.805,6.029,13.2970,4.60003,2469.923,2019-10-11T11:17:54Z
2019-10-11T09:20:32Z,42.805,6.029,13.2982,4.60013,2469.97,2019-10-11T11:20:57Z
2019-10-11T09:23:35Z,42.805,6.029,13.2965,4.60011,2469.96,2019-10-11T11:24:00Z
2019-10-11T09:26:38Z,42.805,6.029,13.2972,4.59991,2469.947,2019-10-11T11:27:03Z
2019-10-11T09:29:41Z,42.805,6.029,13.2972,4.60024,2469.97,2019-10-11T11:30:06Z
2019-10-11T09:32:45Z,42.805,6.029,13.2999,4.60006,2469.947,2019-10-11T11:33:10Z
2019-10-11T09:35:48Z,42.805,6.029,13.2965,4.59998,2469.947,2019-10-11T11:36:13Z
2019-10-11T09:38:51Z,42.805,6.029,13.2976,4.59987,2469.947,2019-10-11T11:39:16Z
2019-10-11T09:41:54Z,42.805,6.029,13.2967,4.59994,2469.96,2019-10-11T11:42:19Z
2019-10-11T09:44:57Z,42.805,6.029,13.2964,4.59978,2469.914,2019-10-11T11:45:22Z
2019-10-11T09:48:00Z,42.805,6.029,13.2963,4.59980,2469.937,2019-10-11T11:48:26Z
2019-10-11T09:51:04Z,42.805,6.029,13.2974,4.59989,2469.923,2019-10-11T11:51:29Z
2019-10-11T09:54:07Z,42.805,6.029,13.2978,4.60004,2469.923,2019-10-11T11:54:32Z
2019-10-11T09:57:10Z,42.805,6.029,13.2967,4.60017,2469.923,2019-10-11T11:57:35Z
2019-10-11T10:00:13Z,42.805,6.029,13.2971,4.60011,2469.914,2019-10-11T12:00:38Z
2019-10-11T10:03:17Z,42.805,6.029,13.2982,4.60014,2469.937,2019-10-11T12:03:42Z
2019-10-11T10:06:20Z,42.805,6.029,13.2983,4.59990,2469.937,2019-10-11T12:06:45Z
2019-10-11T10:09:23Z,42.805,6.029,13.2964,4.59981,2469.914,2019-10-11T12:09:48Z
2019-10-11T10:12:26Z,42.805,6.029,13.2968,4.59977,2469.923,2019-10-11T12:12:51Z
2019-10-11T10:15:29Z,42.805,6.029,13.2990,4.60006,2469.937,2019-10-11T12:15:54Z
2019-10-11T10:18:32Z,42.805,6.029,13.2985,4.59999,2469.9,2019-10-11T12:18:58Z
2019-10-11T10:21:36Z,42.805,6.029,13.2976,4.60001,2469.923,2019-10-11T12:22:01Z
2019-10-11T10:24:39Z,42.805,6.029,13.2988,4.60012,2469.9,2019-10-11T12:25:04Z
2019-10-11T10:27:42Z,42.805,6.029,13.2990,4.60011,2469.876,2019-10-11T12:28:07Z
2019-10-11T10:30:45Z,42.805,6.029,13.2982,4.60013,2469.89,2019-10-11T12:31:10Z
2019-10-11T10:33:48Z,42.805,6.029,13.2984,4.60020,2469.914,2019-10-11T12:34:14Z
2019-10-11T10:36:52Z,42.805,6.029,13.2975,4.60016,2469.876,2019-10-11T12:37:17Z
2019-10-11T10:39:55Z,42.805,6.029,13.2964,4.59998,2469.937,2019-10-11T12:40:20Z
2019-10-11T10:42:58Z,42.805,6.029,13.2968,4.59997,2469.876,2019-10-11T12:43:23Z
2019-10-11T10:46:01Z,42.805,6.029,13.2965,4.59986,2469.914,2019-10-11T12:46:26Z
2019-10-11T10:49:04Z,42.805,6.029,13.2969,4.59996,2469.923,2019-10-11T12:49:30Z
2019-10-11T10:52:08Z,42.805,6.029,13.2969,4.60003,2469.9,2019-10-11T12:52:33Z
2019-10-11T10:55:11Z,42.805,6.029,13.2974,4.60015,2469.9,2019-10-11T12:55:36Z
2019-10-11T10:58:14Z,42.805,6.029,13.2976,4.60008,2469.9,2019-10-11T12:58:39Z
2019-10-11T11:01:17Z,42.805,6.029,13.2962,4.59995,2469.89,2019-10-11T13:01:42Z
2019-10-11T11:04:20Z,42.805,6.029,13.2964,4.59995,2469.9,2019-10-11T13:04:45Z
2019-10-11T11:07:24Z,42.805,6.029,13.2971,4.59983,2469.876,2019-10-11T13:07:49Z
2019-10-11T11:10:27Z,42.805,6.029,13.2971,4.60015,2469.9,2019-10-11T13:10:52Z
2019-10-11T11:13:30Z,42.805,6.029,13.2961,4.59983,2469.89,2019-10-11T13:13:55Z
2019-10-11T11:16:33Z,42.805,6.029,13.2963,4.59993,2469.89,2019-10-11T13:16:58Z
2019-10-11T11:19:36Z,42.805,6.029,13.2989,4.60001,2469.9,2019-10-11T13:20:02Z
2019-10-11T11:22:40Z,42.805,6.029,13.2976,4.60001,2469.853,2019-10-11T13:23:05Z
2019-10-11T11:25:43Z,42.805,6.029,13.2964,4.59992,2469.876,2019-10-11T13:26:08Z
2019-10-11T11:28:46Z,42.805,6.029,13.2972,4.59994,2469.867,2019-10-11T13:29:11Z
2019-10-11T11:31:49Z,42.805,6.029,13.2968,4.59991,2469.876,2019-10-11T13:32:15Z
2019-10-11T11:34:53Z,42.805,6.029,13.2968,4.59983,2469.914,2019-10-11T13:35:18Z
2019-10-11T11:37:56Z,42.805,6.029,13.2967,4.59982,2469.914,2019-10-11T13:38:21Z
2019-10-11T11:40:59Z,42.805,6.029,13.2958,4.59988,2469.876,2019-10-11T13:41:24Z
2019-10-11T11:44:02Z,42.805,6.029,13.2979,4.60007,2469.9,2019-10-11T13:44:27Z
2019-10-11T11:47:05Z,42.805,6.029,13.2971,4.59990,2469.9,2019-10-11T13:47:31Z
2019-10-11T11:50:09Z,42.805,6.029,13.2961,4.59971,2469.89,2019-10-11T13:50:34Z
2019-10-11T11:53:12Z,42.805,6.029,13.2967,4.59976,2469.89,2019-10-11T13:53:37Z
2019-10-11T11:56:15Z,42.805,6.029,13.2965,4.59973,2469.867,2019-10-11T13:56:40Z
2019-10-11T11:59:18Z,42.805,6.029,13.2980,4.59999,2469.876,2019-10-11T13:59:43Z
2019-10-11T12:02:21Z,42.805,6.029,13.2975,4.59997,2469.89,2019-10-11T14:02:46Z
2019-10-11T12:05:25Z,42.805,6.029,13.2961,4.59981,2469.844,2019-10-11T14:05:50Z
2019-10-11T12:08:28Z,42.805,6.029,13.2963,4.59978,2469.914,2019-10-11T14:08:53Z
2019-10-11T12:11:31Z,42.805,6.029,13.2967,4.59976,2469.853,2019-10-11T14:11:56Z
2019-10-11T12:14:34Z,42.805,6.029,13.2965,4.59973,2469.89,2019-10-11T14:14:59Z
2019-10-11T12:17:37Z,42.805,6.029,13.2968,4.59977,2469.867,2019-10-11T14:18:02Z
2019-10-11T12:20:41Z,42.805,6.029,13.2964,4.59974,2469.914,2019-10-11T14:21:06Z
2019-10-11T12:23:44Z,42.805,6.029,13.2965,4.59972,2469.89,2019-10-11T14:24:09Z
2019-10-11T12:26:47Z,42.805,6.029,13.2964,4.59972,2469.89,2019-10-11T14:27:12Z
2019-10-11T12:29:50Z,42.805,6.029,13.2968,4.59975,2469.876,2019-10-11T14:30:15Z
2019-10-11T12:32:54Z,42.805,6.029,13.2964,4.59971,2469.844,2019-10-11T14:33:19Z
2019-10-11T12:35:57Z,42.805,6.029,13.2966,4.59976,2469.853,2019-10-11T14:36:22Z
2019-10-11T12:39:00Z,42.805,6.029,13.2964,4.59993,2469.9,2019-10-11T14:39:25Z
2019-10-11T12:42:03Z,42.805,6.029,13.2971,4.59986,2469.876,2019-10-11T14:42:28Z
2019-10-11T12:45:06Z,42.805,6.029,13.2966,4.59981,2469.876,2019-10-11T14:45:31Z
2019-10-11T12:48:10Z,42.805,6.029,13.2964,4.59968,2469.876,2019-10-11T14:48:35Z
2019-10-11T12:51:13Z,42.805,6.029,13.2957,4.59974,2469.89,2019-10-11T14:51:38Z
2019-10-11T12:54:16Z,42.805,6.029,13.2967,4.59972,2469.89,2019-10-11T14:54:41Z
2019-10-11T12:57:19Z,42.805,6.029,13.2962,4.59973,2469.89,2019-10-11T14:57:44Z
2019-10-11T13:00:22Z,42.805,6.029,13.2961,4.59986,2469.867,2019-10-11T15:00:48Z
2019-10-11T13:03:26Z,42.805,6.029,13.2964,4.59973,2469.9,2019-10-11T15:03:51Z
2019-10-11T13:06:29Z,42.805,6.029,13.2972,4.59983,2469.876,2019-10-11T15:06:54Z
2019-10-11T13:09:32Z,42.805,6.029,13.2968,4.59972,2469.89,2019-10-11T15:09:57Z
2019-10-11T13:12:36Z,42.805,6.029,13.2961,4.59948,2469.867,2019-10-11T15:13:01Z
2019-10-11T13:15:39Z,42.805,6.029,13.2961,4.59971,2469.923,2019-10-11T15:16:04Z
2019-10-11T13:18:42Z,42.805,6.029,13.2968,4.59971,2469.914,2019-10-11T15:19:07Z
2019-10-11T13:21:45Z,42.805,6.029,13.2966,4.59968,2469.876,2019-10-11T15:22:10Z
2019-10-11T13:24:48Z,42.805,6.029,13.2966,4.59969,2469.9,2019-10-11T15:25:13Z
2019-10-11T13:27:52Z,42.805,6.029,13.2963,4.59970,2469.89,2019-10-11T15:28:17Z
2019-10-11T13:30:55Z,42.805,6.029,13.2967,4.59976,2469.9,2019-10-11T15:31:20Z
2019-10-11T13:33:58Z,42.805,6.029,13.2963,4.59966,2469.89,2019-10-11T15:34:23Z
2019-10-11T13:37:01Z,42.805,6.029,13.2963,4.59970,2469.914,2019-10-11T15:37:26Z
2019-10-11T13:40:04Z,42.805,6.029,13.2958,4.59968,2469.914,2019-10-11T15:40:29Z
2019-10-11T13:43:08Z,42.805,6.029,13.2963,4.59975,2469.89,2019-10-11T15:43:33Z
2019-10-11T13:46:11Z,42.805,6.029,13.2964,4.59968,2469.9,2019-10-11T15:46:36Z
2019-10-11T13:49:14Z,42.805,6.029,13.2961,4.59970,2469.937,2019-10-11T15:49:39Z
2019-10-11T13:52:17Z,42.805,6.029,13.2971,4.59971,2469.923,2019-10-11T15:52:42Z
2019-10-11T13:55:20Z,42.805,6.029,13.2958,4.59973,2469.876,2019-10-11T15:55:46Z
2019-10-11T13:58:24Z,42.805,6.029,13.2967,4.59970,2469.914,2019-10-11T15:58:49Z
2019-10-11T14:01:27Z,42.805,6.029,13.2964,4.59971,2469.923,2019-10-11T16:01:52Z
2019-10-11T14:04:30Z,42.805,6.029,13.2959,4.59964,2469.914,2019-10-11T16:04:55Z
2019-10-11T14:07:33Z,42.805,6.029,13.2968,4.59973,2469.923,2019-10-11T16:07:58Z
2019-10-11T14:10:36Z,42.805,6.029,13.2965,4.59982,2469.914,2019-10-11T16:11:02Z
2019-10-11T14:13:40Z,42.805,6.029,13.2961,4.59984,2469.923,2019-10-11T16:14:05Z
2019-10-11T14:16:43Z,42.805,6.029,13.2958,4.59971,2469.914,2019-10-11T16:17:08Z
2019-10-11T14:19:46Z,42.805,6.029,13.2961,4.59971,2469.937,2019-10-11T16:20:11Z
2019-10-11T14:22:49Z,42.805,6.029,13.2970,4.59989,2469.9,2019-10-11T16:23:14Z
2019-10-11T14:25:52Z,42.805,6.029,13.2973,4.59983,2469.914,2019-10-11T16:26:17Z
2019-10-11T14:28:56Z,42.805,6.029,13.2959,4.59981,2469.96,2019-10-11T16:29:21Z
2019-10-11T14:31:59Z,42.805,6.029,13.2974,4.59989,2469.947,2019-10-11T16:32:24Z
2019-10-11T14:35:02Z,42.805,6.029,13.2964,4.59980,2469.923,2019-10-11T16:35:27Z
2019-10-11T14:38:05Z,42.805,6.029,13.2974,4.59980,2469.923,2019-10-11T16:38:30Z
2019-10-11T14:41:08Z,42.805,6.029,13.2974,4.59988,2469.947,2019-10-11T16:41:33Z
2019-10-11T14:44:12Z,42.805,6.029,13.2965,4.59991,2469.937,2019-10-11T16:44:37Z
2019-10-11T14:47:15Z,42.805,6.029,13.2970,4.59996,2469.923,2019-10-11T16:47:40Z
2019-10-11T14:50:18Z,42.805,6.029,13.2971,4.59983,2469.933,2019-10-11T16:50:43Z
2019-10-11T14:53:21Z,42.805,6.029,13.2973,4.59989,2469.937,2019-10-11T16:53:46Z
2019-10-11T14:56:25Z,42.805,6.029,13.2966,4.59981,2469.947,2019-10-11T16:56:50Z
2019-10-11T14:59:28Z,42.805,6.029,13.2960,4.59973,2469.96,2019-10-11T16:59:53Z
2019-10-11T15:02:31Z,42.805,6.029,13.2962,4.59973,2469.947,2019-10-11T17:02:56Z